Latest METARs, TAFs and NOTAMs for SKCL


---------------------------------------------------------------------------
	(OBSERVATIONS)
SKCL 291400Z 12003KT 9000 FEW020 SCT090 26/18 A3004 RMK / HZ=
SKCL 291400Z 12003KT 9000 FEW020 SCT090 26/18 A3004 RMK/HZ=
SKCL 291300Z 11003KT 9000 FEW020 SCT090 22/18 A3004 RMK / HZ=
SKCL 291200Z 04004KT 9000 FEW025 SCT090 20/18 A3001 RMK /HZ=
---------------------------------------------------------------------------
	(TERMINAL AREA FORECAST)
SKCL 291000Z 2912/3012 03005KT 9999 FEW020 SCT200
    TEMPO 2919/2924 34012KT 8000 VCSH PROB30 2920/2922 7000 DZ
    SCT022 TX33/2919Z TN18/3011Z=
---------------------------------------------------------------------------
	(NOTAMS)


SKCL A0951/14 APN AND APN CARGO WIP, EXER CTN. H24, 15 APR 15:06
    2014 UNTIL 29 JUL 23:59 2014. CREATED: 15 APR 16:02 2014

SKCL A0952/14 STRIP RWY 01/19 WIP, EXER CTN. 1200-2200, 15 APR
    16:16 2014 UNTIL 29 JUL 22:00 2014. CREATED: 15 APR 16:21
    2014

SKCL A1121/14 SEQUENCED FLG LGT RWY 01 U/S. 02 MAY 14:10 2014
    UNTIL 04 AUG 23:59 2014 ESTIMATED. CREATED: 02 MAY 14:40
    2014

SKCL A1138/14 RWY 01/19 TURNING BAY LTD, ACFT PROHIBITED PARALLEL
    OR ONE SURPASSES THE OTHER ACFT, EXER CTN. H24, 03 MAY 19:15
    2014 UNTIL 06 AUG 23:59 2014 ESTIMATED. CREATED: 03 MAY 20:20
    2014

SKCL A1331/14 MOVEMENT AND LDG AREA WITHOUT VERTICAL SIGNALLING,
    EXER CTN. H24, 21 MAY 18:50 2014 UNTIL 21 AUG 23:59 2014
    ESTIMATED. CREATED: 21 MAY 18:56 2014

SKCL A1389/14 TWY A,B,C,C1,D,E,F,G WIP, EXER CTN. H24, 01 JUN
    13:00 2014 UNTIL 29 JUL 23:59 2014. CREATED: 26 MAY 21:49
    2014

SKCL A1600/14 REMOTE ACFT STAND ZULU POINT INSTL COORD 033320,90W0762252,12W
    REF AIP COLOMBIA 2-SKCL-ADC. 09 JUN 20:30 2014 UNTIL PERM.
    CREATED: 02 JUL 12:25 2014

SKCL A1750/14 AD CLSD BY SIMULATION. 1630-1730, 10 SEP 16:30
    2014 UNTIL 10 SEP 17:30 2014. CREATED: 22 JUN 14:25 2014

SKCL V0094/14 [DOD PROCEDURAL NOTAM] INSTRUMENT APPROACH PROCEDURE
    CHANGED DUE TO HOST CHANGE: ILS RWY 01 AMDT 1: MSA 120-200
    11700FT, 200-350 16100FT, 350-120 15300FT. FAF CROSSING ALTITUDE
    5700FT. MAP 7.1 DME/CLO. VOR RWY 19 ORIG; ANKIN 5A, 5B DEP;
    BUN 6A DEP; BUN 6C DEP - MSA 120-200 11700FT, 200-350 16100FT,
    350-120 15300FT. 23 JUL 22:35 2014 UNTIL 18 SEP 23:59 2014.
    CREATED: 23 JUL 22:36 2014

---------------------------------------------------------------------------